Location: Newark
(34.6283°N, 36.0776°E)
Time: 06:50:19
(UTC+00:00)

A-11 Canister half - Pass Details

Date: 22 September 2019
Orbit: 1527 x 1682 km, 47.3° (Epoch: 21 October)

Event Time Altitude Azimuth Distance (km) Brightness Sun altitude
Rises 03:42:28 0° 282° (WNW) 4,713 10.9 3.1°
Reaches altitude 10° 03:45:50 10° 290° (WNW) 3,747 10.5 3.8°
Maximum altitude 03:54:34 39° 357° (N) 2,243 9.9 5.6°
Drops below altitude 10° 04:03:34 10° 64° (ENE) 3,861 12.3 7.4°
Sets 04:07:05 0° 72° (ENE) 4,869 13.1 8.2°
